Year,Month,Day,Hour,Minute,Value (Times are PST for temperature in C)
2018,02,25,00,00,4.70
2018,02,25,00,01,4.70
2018,02,25,00,02,4.70
2018,02,25,00,03,4.60
2018,02,25,00,04,4.60
2018,02,25,00,05,4.60
2018,02,25,00,06,4.60
2018,02,25,00,07,4.60
2018,02,25,00,08,4.60
2018,02,25,00,09,4.60
2018,02,25,00,10,4.60
2018,02,25,00,11,4.60
2018,02,25,00,12,4.60
2018,02,25,00,13,4.60
2018,02,25,00,14,4.60
2018,02,25,00,15,4.60
2018,02,25,00,16,4.50
2018,02,25,00,17,4.50
2018,02,25,00,18,4.40
2018,02,25,00,19,4.40
2018,02,25,00,20,4.40
2018,02,25,00,21,4.30
2018,02,25,00,22,4.30
2018,02,25,00,23,4.30
2018,02,25,00,24,4.30
2018,02,25,00,25,4.30
2018,02,25,00,26,4.20
2018,02,25,00,27,4.20
2018,02,25,00,28,4.20
2018,02,25,00,29,4.20
2018,02,25,00,30,4.10
2018,02,25,00,31,4.10
2018,02,25,00,32,4.10
2018,02,25,00,33,4.10
2018,02,25,00,34,4.10
2018,02,25,00,35,4.10
2018,02,25,00,36,4.10
2018,02,25,00,37,4.00
2018,02,25,00,38,4.00
2018,02,25,00,39,3.90
2018,02,25,00,40,3.90
2018,02,25,00,41,3.80
2018,02,25,00,42,3.80
2018,02,25,00,43,3.80
2018,02,25,00,44,3.80
2018,02,25,00,45,3.80
2018,02,25,00,46,3.80
2018,02,25,00,47,3.80
2018,02,25,00,48,3.80
2018,02,25,00,49,3.80
2018,02,25,00,50,3.80
2018,02,25,00,51,3.80
2018,02,25,00,52,3.70
2018,02,25,00,53,3.70
2018,02,25,00,54,3.70
2018,02,25,00,55,3.70
2018,02,25,00,56,3.70
2018,02,25,00,57,3.60
2018,02,25,00,58,3.60
2018,02,25,00,59,3.60
2018,02,25,01,00,3.60
2018,02,25,01,01,3.60
2018,02,25,01,02,3.60
2018,02,25,01,03,3.50
2018,02,25,01,04,3.50
2018,02,25,01,05,3.50
2018,02,25,01,06,3.50
2018,02,25,01,07,3.50
2018,02,25,01,08,3.40
2018,02,25,01,09,3.40
2018,02,25,01,10,3.40
2018,02,25,01,11,3.40
2018,02,25,01,12,3.30
2018,02,25,01,13,3.30
2018,02,25,01,14,3.30
2018,02,25,01,15,3.30
2018,02,25,01,16,3.30
2018,02,25,01,17,3.20
2018,02,25,01,18,3.20
2018,02,25,01,19,3.20
2018,02,25,01,20,3.20
2018,02,25,01,21,3.20
2018,02,25,01,22,3.20
2018,02,25,01,23,3.20
2018,02,25,01,24,3.20
2018,02,25,01,25,3.20
2018,02,25,01,26,3.20
2018,02,25,01,27,3.10
2018,02,25,01,28,3.10
2018,02,25,01,29,3.10
2018,02,25,01,30,3.10
2018,02,25,01,31,3.00
2018,02,25,01,32,3.00
2018,02,25,01,33,3.00
2018,02,25,01,34,2.90
2018,02,25,01,35,2.90
2018,02,25,01,36,2.90
2018,02,25,01,37,2.90
2018,02,25,01,38,2.80
2018,02,25,01,39,2.80
2018,02,25,01,40,2.80
2018,02,25,01,41,2.80
2018,02,25,01,42,2.80
2018,02,25,01,43,2.80
2018,02,25,01,44,2.80
2018,02,25,01,45,2.80
2018,02,25,01,46,2.80
2018,02,25,01,47,2.80
2018,02,25,01,48,2.70
2018,02,25,01,49,2.70
2018,02,25,01,50,2.70
2018,02,25,01,51,2.70
2018,02,25,01,52,2.70
2018,02,25,01,53,2.70
2018,02,25,01,54,2.70
2018,02,25,01,55,2.70
2018,02,25,01,56,2.70
2018,02,25,01,57,2.70
2018,02,25,01,58,2.70
2018,02,25,01,59,2.70
2018,02,25,02,00,2.70
2018,02,25,02,01,2.70
2018,02,25,02,02,2.70
2018,02,25,02,03,2.70
2018,02,25,02,04,2.70
2018,02,25,02,05,2.70
2018,02,25,02,06,2.70
2018,02,25,02,07,2.70
2018,02,25,02,08,2.70
2018,02,25,02,09,2.70
2018,02,25,02,10,2.70
2018,02,25,02,11,2.70
2018,02,25,02,12,2.70
2018,02,25,02,13,2.80
2018,02,25,02,14,2.80
2018,02,25,02,15,2.80
2018,02,25,02,16,2.70
2018,02,25,02,17,2.70
2018,02,25,02,18,2.70
2018,02,25,02,19,2.70
2018,02,25,02,20,2.70
2018,02,25,02,21,2.70
2018,02,25,02,22,2.70
2018,02,25,02,23,2.70
2018,02,25,02,24,2.70
2018,02,25,02,25,2.70
2018,02,25,02,26,2.80
2018,02,25,02,27,2.80
2018,02,25,02,28,2.80
2018,02,25,02,29,2.80
2018,02,25,02,30,2.80
2018,02,25,02,31,2.90
2018,02,25,02,32,2.90
2018,02,25,02,33,2.90
2018,02,25,02,34,2.90
2018,02,25,02,35,3.00
2018,02,25,02,36,3.00
2018,02,25,02,37,3.00
2018,02,25,02,38,3.10
2018,02,25,02,39,3.10
2018,02,25,02,40,3.10
2018,02,25,02,41,3.10
2018,02,25,02,42,3.20
2018,02,25,02,43,3.20
2018,02,25,02,44,3.20
2018,02,25,02,45,3.20
2018,02,25,02,46,3.20
2018,02,25,02,47,3.20
2018,02,25,02,48,3.20
2018,02,25,02,49,3.20
2018,02,25,02,50,3.20
2018,02,25,02,51,3.20
2018,02,25,02,52,3.20
2018,02,25,02,53,3.20
2018,02,25,02,54,3.20
2018,02,25,02,55,3.20
2018,02,25,02,56,3.20
2018,02,25,02,57,3.20
2018,02,25,02,58,3.20
2018,02,25,02,59,3.20
2018,02,25,03,00,3.20
2018,02,25,03,01,3.20
2018,02,25,03,02,3.20
2018,02,25,03,03,3.20
2018,02,25,03,04,3.20
2018,02,25,03,05,3.20
2018,02,25,03,06,3.20
2018,02,25,03,07,3.20
2018,02,25,03,08,3.20
2018,02,25,03,09,3.20
2018,02,25,03,10,3.20
2018,02,25,03,11,3.20
2018,02,25,03,12,3.20
2018,02,25,03,13,3.20
2018,02,25,03,14,3.20
2018,02,25,03,15,3.20
2018,02,25,03,16,3.20
2018,02,25,03,17,3.20
2018,02,25,03,18,3.20
2018,02,25,03,19,3.10
2018,02,25,03,20,3.10
2018,02,25,03,21,3.10
2018,02,25,03,22,3.10
2018,02,25,03,23,3.10
2018,02,25,03,24,3.00
2018,02,25,03,25,3.00
2018,02,25,03,26,3.00
2018,02,25,03,27,3.00
2018,02,25,03,28,3.00
2018,02,25,03,29,3.00
2018,02,25,03,30,3.00
2018,02,25,03,31,3.00
2018,02,25,03,32,3.00
2018,02,25,03,33,3.00
2018,02,25,03,34,3.00
2018,02,25,03,35,2.90
2018,02,25,03,36,2.90
2018,02,25,03,37,2.90
2018,02,25,03,38,2.90
2018,02,25,03,39,2.90
2018,02,25,03,40,2.80
2018,02,25,03,41,2.80
2018,02,25,03,42,2.80
2018,02,25,03,43,2.80
2018,02,25,03,44,2.80
2018,02,25,03,45,2.70
2018,02,25,03,46,2.70
2018,02,25,03,47,2.70
2018,02,25,03,48,2.70
2018,02,25,03,49,2.70
2018,02,25,03,50,2.70
2018,02,25,03,51,2.60
2018,02,25,03,52,2.60
2018,02,25,03,53,2.60
2018,02,25,03,54,2.60
2018,02,25,03,55,2.60
2018,02,25,03,56,2.50
2018,02,25,03,57,2.50
2018,02,25,03,58,2.40
2018,02,25,03,59,2.40
2018,02,25,04,00,2.40
2018,02,25,04,01,2.40
2018,02,25,04,02,2.30
2018,02,25,04,03,2.30
2018,02,25,04,04,2.30
2018,02,25,04,05,2.30
2018,02,25,04,06,2.30
2018,02,25,04,07,2.30
2018,02,25,04,08,2.30
2018,02,25,04,09,2.30
2018,02,25,04,10,2.30
2018,02,25,04,11,2.30
2018,02,25,04,12,2.30
2018,02,25,04,13,2.30
2018,02,25,04,14,2.30
2018,02,25,04,15,2.30
2018,02,25,04,16,2.30
2018,02,25,04,17,2.30
2018,02,25,04,18,2.30
2018,02,25,04,19,2.30
2018,02,25,04,20,2.30
2018,02,25,04,21,2.30
2018,02,25,04,22,2.30
2018,02,25,04,23,2.20
2018,02,25,04,24,2.20
2018,02,25,04,25,2.20
2018,02,25,04,26,2.20
2018,02,25,04,27,2.20
2018,02,25,04,28,2.20
2018,02,25,04,29,2.10
2018,02,25,04,30,2.10
2018,02,25,04,31,2.10
2018,02,25,04,32,2.10
2018,02,25,04,33,2.10
2018,02,25,04,34,2.10
2018,02,25,04,35,2.10
2018,02,25,04,36,2.10
2018,02,25,04,37,2.10
2018,02,25,04,38,2.10
2018,02,25,04,39,2.10
2018,02,25,04,40,2.10
2018,02,25,04,41,2.10
2018,02,25,04,42,2.10
2018,02,25,04,43,2.00
2018,02,25,04,44,2.00
2018,02,25,04,45,2.00
2018,02,25,04,46,2.00
2018,02,25,04,47,2.00
2018,02,25,04,48,2.00
2018,02,25,04,49,1.90
2018,02,25,04,50,1.90
2018,02,25,04,51,2.00
2018,02,25,04,52,2.00
2018,02,25,04,53,2.00
2018,02,25,04,54,2.00
2018,02,25,04,55,2.00
2018,02,25,04,56,2.00
2018,02,25,04,57,2.00
2018,02,25,04,58,2.00
2018,02,25,04,59,2.10
2018,02,25,05,00,2.10
2018,02,25,05,01,2.10
2018,02,25,05,02,2.10
2018,02,25,05,03,2.10
2018,02,25,05,04,2.10
2018,02,25,05,05,2.10
2018,02,25,05,06,2.10
2018,02,25,05,07,2.10
2018,02,25,05,08,2.10
2018,02,25,05,09,2.10
2018,02,25,05,10,2.20
2018,02,25,05,11,2.20
2018,02,25,05,12,2.20
2018,02,25,05,13,2.20
2018,02,25,05,14,2.20
2018,02,25,05,15,2.20
2018,02,25,05,16,2.20
2018,02,25,05,17,2.20
2018,02,25,05,18,2.20
2018,02,25,05,19,2.20
2018,02,25,05,20,2.20
2018,02,25,05,21,2.20
2018,02,25,05,22,2.20
2018,02,25,05,23,2.20
2018,02,25,11,19,4.50
2018,02,25,11,20,4.60
2018,02,25,11,21,4.60
2018,02,25,11,22,4.70
2018,02,25,11,23,4.70
2018,02,25,11,24,4.70
2018,02,25,11,25,4.70
2018,02,25,11,26,4.70
2018,02,25,11,27,4.70
2018,02,25,11,28,4.70
2018,02,25,11,29,4.70
2018,02,25,11,30,4.70
2018,02,25,11,31,4.80
2018,02,25,11,32,4.80
2018,02,25,11,33,4.80
2018,02,25,11,34,4.80
2018,02,25,11,35,4.70
2018,02,25,11,36,4.70
2018,02,25,11,37,4.70
2018,02,25,11,38,4.80
2018,02,25,11,39,4.80
2018,02,25,11,40,4.80
2018,02,25,11,41,4.80
2018,02,25,11,42,4.90
2018,02,25,11,43,4.90
2018,02,25,11,44,4.90
2018,02,25,11,45,4.90
2018,02,25,11,46,4.90
2018,02,25,11,47,4.90
2018,02,25,11,48,4.90
2018,02,25,11,49,4.90
2018,02,25,11,50,5.00
2018,02,25,11,51,5.00
2018,02,25,11,52,5.10
2018,02,25,11,53,5.10
2018,02,25,11,54,5.10
2018,02,25,11,55,5.10
2018,02,25,11,56,5.10
2018,02,25,11,57,5.20
2018,02,25,11,58,5.10
2018,02,25,11,59,5.10
2018,02,25,12,00,5.10
2018,02,25,12,01,5.10
2018,02,25,12,02,5.00
2018,02,25,12,03,5.00
2018,02,25,12,04,4.90
2018,02,25,12,05,4.90
2018,02,25,12,06,4.90
2018,02,25,12,07,4.90
2018,02,25,12,08,4.90
2018,02,25,12,09,4.80
2018,02,25,12,10,4.90
2018,02,25,12,11,4.90
2018,02,25,12,12,4.90
2018,02,25,12,13,4.90
2018,02,25,12,14,4.90
2018,02,25,12,15,4.90
2018,02,25,12,16,4.90
2018,02,25,12,17,4.90
2018,02,25,12,18,4.90
2018,02,25,12,19,4.90
2018,02,25,12,20,5.00
2018,02,25,12,21,5.10
2018,02,25,12,22,5.20
2018,02,25,12,23,5.20
2018,02,25,12,24,5.20
2018,02,25,12,25,5.10
2018,02,25,12,26,5.10
2018,02,25,12,27,5.10
2018,02,25,12,28,5.10
2018,02,25,12,29,5.10
2018,02,25,12,30,5.10
2018,02,25,12,31,5.20
2018,02,25,12,32,5.20
2018,02,25,12,33,5.20
2018,02,25,12,34,5.20
2018,02,25,12,35,5.10
2018,02,25,12,36,5.10
2018,02,25,12,37,5.00
2018,02,25,12,38,5.00
2018,02,25,12,39,4.90
2018,02,25,12,40,4.90
2018,02,25,12,41,4.90
2018,02,25,12,42,4.90
2018,02,25,12,43,4.90
2018,02,25,12,44,5.00
2018,02,25,12,45,5.00
2018,02,25,12,46,5.10
2018,02,25,12,47,5.20
2018,02,25,12,48,5.20
2018,02,25,12,49,5.20
2018,02,25,12,50,5.20
2018,02,25,12,51,5.20
2018,02,25,12,52,5.20
2018,02,25,12,53,5.20
2018,02,25,12,54,5.20
2018,02,25,12,55,5.20
2018,02,25,12,56,5.20
2018,02,25,12,57,5.20
2018,02,25,12,58,5.20
2018,02,25,12,59,5.20
2018,02,25,13,00,5.20
2018,02,25,13,01,5.20
2018,02,25,13,02,5.20
2018,02,25,13,03,5.20
2018,02,25,13,04,5.20
2018,02,25,13,05,5.20
2018,02,25,13,06,5.20
2018,02,25,13,07,5.30
2018,02,25,13,08,5.30
2018,02,25,13,09,5.30
2018,02,25,13,10,5.30
2018,02,25,13,11,5.30
2018,02,25,13,12,5.30
2018,02,25,13,13,5.30
2018,02,25,13,14,5.30
2018,02,25,13,15,5.30
2018,02,25,13,16,5.30
2018,02,25,13,17,5.30
2018,02,25,13,18,5.30
2018,02,25,13,19,5.40
2018,02,25,13,20,5.40
2018,02,25,13,21,5.40
2018,02,25,13,22,5.40
2018,02,25,13,23,5.40
2018,02,25,13,24,5.40
2018,02,25,13,25,5.40
2018,02,25,13,26,5.40
2018,02,25,13,27,5.40
2018,02,25,13,28,5.40
2018,02,25,13,29,5.40
2018,02,25,13,30,5.40
2018,02,25,13,31,5.30
2018,02,25,13,32,5.30
2018,02,25,13,33,5.30
2018,02,25,13,34,5.30
2018,02,25,13,35,5.30
2018,02,25,13,36,5.20
2018,02,25,13,37,5.20
2018,02,25,13,38,5.20
2018,02,25,13,39,5.20
2018,02,25,13,40,5.20
2018,02,25,13,41,5.10
2018,02,25,13,42,5.10
2018,02,25,13,43,5.10
2018,02,25,13,44,5.00
2018,02,25,13,45,5.00
2018,02,25,13,46,5.00
2018,02,25,13,47,5.00
2018,02,25,13,48,5.10
2018,02,25,13,49,5.10
2018,02,25,13,50,5.10
2018,02,25,13,51,5.10
2018,02,25,13,52,5.10
2018,02,25,13,53,5.10
2018,02,25,13,54,5.10
2018,02,25,13,55,5.00
2018,02,25,13,56,5.00
2018,02,25,13,57,5.00
2018,02,25,13,58,5.00
2018,02,25,13,59,5.00
2018,02,25,14,00,5.00
2018,02,25,14,01,5.00
2018,02,25,14,02,5.00
2018,02,25,14,03,5.00
2018,02,25,14,04,5.00
2018,02,25,14,05,5.00
2018,02,25,14,06,5.10
2018,02,25,14,07,5.10
2018,02,25,14,08,5.10
2018,02,25,14,09,5.10
2018,02,25,14,10,5.10
2018,02,25,14,11,5.20
2018,02,25,14,12,5.20
2018,02,25,14,13,5.20
2018,02,25,14,14,5.30
2018,02,25,14,15,5.30
2018,02,25,14,16,5.30
2018,02,25,14,17,5.30
2018,02,25,14,18,5.30
2018,02,25,14,19,5.10
2018,02,25,14,20,4.90
2018,02,25,14,21,4.80
2018,02,25,14,22,4.60
2018,02,25,14,23,4.40
2018,02,25,14,24,4.30
2018,02,25,14,25,4.20
2018,02,25,14,26,4.10
2018,02,25,14,27,4.10
2018,02,25,14,28,4.00
2018,02,25,14,29,3.90
2018,02,25,14,30,3.90
2018,02,25,14,31,3.80
2018,02,25,14,32,3.80
2018,02,25,14,33,3.80
2018,02,25,14,34,3.70
2018,02,25,14,35,3.70
2018,02,25,14,36,3.70
2018,02,25,14,37,3.70
2018,02,25,14,38,3.70
2018,02,25,14,39,3.70
2018,02,25,14,40,3.70
2018,02,25,14,41,3.70
2018,02,25,14,42,3.70
2018,02,25,14,43,3.70
2018,02,25,14,44,3.60
2018,02,25,14,45,3.60
2018,02,25,14,46,3.60
2018,02,25,14,47,3.60
2018,02,25,14,48,3.60
2018,02,25,14,49,3.60
2018,02,25,14,50,3.60
2018,02,25,14,51,3.60
2018,02,25,14,52,3.60
2018,02,25,14,53,3.60
2018,02,25,14,54,3.70
2018,02,25,14,55,3.70
2018,02,25,14,56,3.70
2018,02,25,14,57,3.70
2018,02,25,14,58,3.70
2018,02,25,14,59,3.70
2018,02,25,15,00,3.70
2018,02,25,15,01,3.60
2018,02,25,15,02,3.60
2018,02,25,15,03,3.60
2018,02,25,15,04,3.50
2018,02,25,15,05,3.50
2018,02,25,15,06,3.50
2018,02,25,15,07,3.50
2018,02,25,15,08,3.50
2018,02,25,15,09,3.50
2018,02,25,15,10,3.50
2018,02,25,15,11,3.40
2018,02,25,15,12,3.40
2018,02,25,15,13,3.40
2018,02,25,15,14,3.40
2018,02,25,15,15,3.40
2018,02,25,15,16,3.40
2018,02,25,15,17,3.40
2018,02,25,15,18,3.40
2018,02,25,15,19,3.40
2018,02,25,15,20,3.40
2018,02,25,15,21,3.50
2018,02,25,15,22,3.50
2018,02,25,15,23,3.50
2018,02,25,15,24,3.50
2018,02,25,15,25,3.50
2018,02,25,15,26,3.40
2018,02,25,15,27,3.40
2018,02,25,15,28,3.50
2018,02,25,15,29,3.50
2018,02,25,15,30,3.50
2018,02,25,15,31,3.50
2018,02,25,15,32,3.50
2018,02,25,15,33,3.50
2018,02,25,15,34,3.50
2018,02,25,15,35,3.50
2018,02,25,15,36,3.60
2018,02,25,15,37,3.60
2018,02,25,15,38,3.60
2018,02,25,15,39,3.60
2018,02,25,15,40,3.50
2018,02,25,15,41,3.50
2018,02,25,15,42,3.50
2018,02,25,15,43,3.50
2018,02,25,15,44,3.50
2018,02,25,15,45,3.50
2018,02,25,15,46,3.50
2018,02,25,15,47,3.50
2018,02,25,15,48,3.50
2018,02,25,15,49,3.50
2018,02,25,15,50,3.50
2018,02,25,15,51,3.50
2018,02,25,15,52,3.50
2018,02,25,15,53,3.50
2018,02,25,15,54,3.50
2018,02,25,15,55,3.50
2018,02,25,15,56,3.50
2018,02,25,15,57,3.40
2018,02,25,15,58,3.40
2018,02,25,15,59,3.40
2018,02,25,16,00,3.40
2018,02,25,16,01,3.40
2018,02,25,16,02,3.40
2018,02,25,16,03,3.40
2018,02,25,16,04,3.40
2018,02,25,16,05,3.40
2018,02,25,16,06,3.40
2018,02,25,16,07,3.40
2018,02,25,16,08,3.40
2018,02,25,16,09,3.40
2018,02,25,16,10,3.40
2018,02,25,16,11,3.40
2018,02,25,16,12,3.40
2018,02,25,16,13,3.40
2018,02,25,16,14,3.40
2018,02,25,16,15,3.40
2018,02,25,16,16,3.40
2018,02,25,16,17,3.40
2018,02,25,16,18,3.40
2018,02,25,16,19,3.40
2018,02,25,16,20,3.40
2018,02,25,16,21,3.40
2018,02,25,16,22,3.50
2018,02,25,16,23,3.50
2018,02,25,16,24,3.60
2018,02,25,16,25,3.60
2018,02,25,16,26,3.60
2018,02,25,16,27,3.70
2018,02,25,16,28,3.70
2018,02,25,16,29,3.70
2018,02,25,16,30,3.80
2018,02,25,16,31,3.80
2018,02,25,16,32,3.90
2018,02,25,16,33,3.90
2018,02,25,16,34,3.90
2018,02,25,16,35,4.00
2018,02,25,16,36,4.00
2018,02,25,16,37,4.00
2018,02,25,16,38,4.00
2018,02,25,16,39,4.00
2018,02,25,16,40,4.00
2018,02,25,16,41,4.00
2018,02,25,16,42,3.90
2018,02,25,16,43,3.90
2018,02,25,16,44,3.90
2018,02,25,16,45,3.90
2018,02,25,16,46,3.80
2018,02,25,16,47,3.80
2018,02,25,16,48,3.80
2018,02,25,16,49,3.80
2018,02,25,16,50,3.80
2018,02,25,16,51,3.80
2018,02,25,16,52,3.80
2018,02,25,16,53,3.70
2018,02,25,16,54,3.70
2018,02,25,16,55,3.70
2018,02,25,16,56,3.70
2018,02,25,16,57,3.70
2018,02,25,16,58,3.60
2018,02,25,16,59,3.60
2018,02,25,17,00,3.60
2018,02,25,17,01,3.60
2018,02,25,17,02,3.60
2018,02,25,17,03,3.50
2018,02,25,17,04,3.50
2018,02,25,17,05,3.40
2018,02,25,17,06,3.40
2018,02,25,17,07,3.40
2018,02,25,17,08,3.40
2018,02,25,17,09,3.40
2018,02,25,17,10,3.40
2018,02,25,17,11,3.30
2018,02,25,17,12,3.30
2018,02,25,17,13,3.30
2018,02,25,17,14,3.30
2018,02,25,17,15,3.30
2018,02,25,17,16,3.30
2018,02,25,17,17,3.20
2018,02,25,17,18,3.20
2018,02,25,17,19,3.20
2018,02,25,17,20,3.20
2018,02,25,17,21,3.10
2018,02,25,17,22,3.10
2018,02,25,17,23,3.10
2018,02,25,17,24,3.00
2018,02,25,17,25,3.00
2018,02,25,17,26,3.00
2018,02,25,17,27,2.90
2018,02,25,17,28,2.90
2018,02,25,17,29,2.90
2018,02,25,17,30,2.90
2018,02,25,17,31,2.90
2018,02,25,17,32,2.80
2018,02,25,17,33,2.80
2018,02,25,17,34,2.80
2018,02,25,17,35,2.80
2018,02,25,17,36,2.80
2018,02,25,17,37,2.80
2018,02,25,17,38,2.70
2018,02,25,17,39,2.70
2018,02,25,17,40,2.70
2018,02,25,17,41,2.70
2018,02,25,17,42,2.60
2018,02,25,17,43,2.60
2018,02,25,17,44,2.60
2018,02,25,17,45,2.60
2018,02,25,17,46,2.50
2018,02,25,17,47,2.50
2018,02,25,17,48,2.50
2018,02,25,17,49,2.50
2018,02,25,17,50,2.40
2018,02,25,17,51,2.40
2018,02,25,17,52,2.40
2018,02,25,17,53,2.40
2018,02,25,17,54,2.40
2018,02,25,17,55,2.40
2018,02,25,17,56,2.40
2018,02,25,17,57,2.40
2018,02,25,17,58,2.40
2018,02,25,17,59,2.40
2018,02,25,18,00,2.40
2018,02,25,18,01,2.40
2018,02,25,18,02,2.40
2018,02,25,18,03,2.40
2018,02,25,18,04,2.40
2018,02,25,18,05,2.30
2018,02,25,18,06,2.30
2018,02,25,18,07,2.30
2018,02,25,18,08,2.30
2018,02,25,18,09,2.30
2018,02,25,18,10,2.30
2018,02,25,18,11,2.30
2018,02,25,18,12,2.30
2018,02,25,18,13,2.30
2018,02,25,18,14,2.30
2018,02,25,18,15,2.30
2018,02,25,18,16,2.30
2018,02,25,18,17,2.30
2018,02,25,18,18,2.30
2018,02,25,18,19,2.30
2018,02,25,18,20,2.30
2018,02,25,18,21,2.30
2018,02,25,18,22,2.30
2018,02,25,18,23,2.30
2018,02,25,18,24,2.20
2018,02,25,18,25,2.20
2018,02,25,18,26,2.20
2018,02,25,18,27,2.20
2018,02,25,18,28,2.20
2018,02,25,18,29,2.20
2018,02,25,18,30,2.20
2018,02,25,18,31,2.20
2018,02,25,18,32,2.20
2018,02,25,18,33,2.10
2018,02,25,18,34,2.10
2018,02,25,18,35,2.10
2018,02,25,18,36,2.10
2018,02,25,18,37,2.10
2018,02,25,18,38,2.00
2018,02,25,18,39,2.00
2018,02,25,18,40,2.00
2018,02,25,18,41,1.90
2018,02,25,18,42,1.90
2018,02,25,18,43,1.90
2018,02,25,18,44,1.90
2018,02,25,18,45,1.90
2018,02,25,18,46,1.90
2018,02,25,18,47,1.80
2018,02,25,18,48,1.80
2018,02,25,18,49,1.80
2018,02,25,18,50,1.80
2018,02,25,18,51,1.80
2018,02,25,18,52,1.80
2018,02,25,18,53,1.80
2018,02,25,18,54,1.70
2018,02,25,18,55,1.70
2018,02,25,18,56,1.70
2018,02,25,18,57,1.70
2018,02,25,18,58,1.70
2018,02,25,18,59,1.70
2018,02,25,19,00,1.60
2018,02,25,19,01,1.60
2018,02,25,19,02,1.60
2018,02,25,19,03,1.60
2018,02,25,19,04,1.60
2018,02,25,19,05,1.60
2018,02,25,19,06,1.60
2018,02,25,19,07,1.50
2018,02,25,19,08,1.50
2018,02,25,19,09,1.50
2018,02,25,19,10,1.50
2018,02,25,19,11,1.40
2018,02,25,19,12,1.40
2018,02,25,19,13,1.40
2018,02,25,19,14,1.40
2018,02,25,19,15,1.40
2018,02,25,19,16,1.40
2018,02,25,19,17,1.30
2018,02,25,19,18,1.30
2018,02,25,19,19,1.30
2018,02,25,19,20,1.30
2018,02,25,19,21,1.20
2018,02,25,19,22,1.20
2018,02,25,19,23,1.20
2018,02,25,19,24,1.10
2018,02,25,19,25,1.10
2018,02,25,19,26,1.10
2018,02,25,19,27,1.00
2018,02,25,19,28,1.00
2018,02,25,19,29,0.90
2018,02,25,19,30,0.90
2018,02,25,19,31,0.90
2018,02,25,19,32,0.90
2018,02,25,19,33,0.90
2018,02,25,19,34,0.80
2018,02,25,19,35,0.80
2018,02,25,19,36,0.80
2018,02,25,19,37,0.80
2018,02,25,19,38,0.80
2018,02,25,19,39,0.70
2018,02,25,19,40,0.70
2018,02,25,19,41,0.70
2018,02,25,19,42,0.70
2018,02,25,19,43,0.70
2018,02,25,19,44,0.60
2018,02,25,19,45,0.60
2018,02,25,19,46,0.60
2018,02,25,19,47,0.60
2018,02,25,19,48,0.60
2018,02,25,19,49,0.60
2018,02,25,19,50,0.50
2018,02,25,19,51,0.50
2018,02,25,19,52,0.50
2018,02,25,19,53,0.50
2018,02,25,19,54,0.40
2018,02,25,19,55,0.40
2018,02,25,19,56,0.40
2018,02,25,19,57,0.40
2018,02,25,19,58,0.40
2018,02,25,19,59,0.30
2018,02,25,20,00,0.30
2018,02,25,20,01,0.30
2018,02,25,20,02,0.30
2018,02,25,20,03,0.30
2018,02,25,20,04,0.30
2018,02,25,20,05,0.30
2018,02,25,20,06,0.30
2018,02,25,20,07,0.30
2018,02,25,20,08,0.30
2018,02,25,20,09,0.40
2018,02,25,20,10,0.40
2018,02,25,20,11,0.40
2018,02,25,20,12,0.40
2018,02,25,20,13,0.40
2018,02,25,20,14,0.40
2018,02,25,20,15,0.30
2018,02,25,20,16,0.30
2018,02,25,20,17,0.30
2018,02,25,20,18,0.30
2018,02,25,20,19,0.30
2018,02,25,20,20,0.20
2018,02,25,20,21,0.20
2018,02,25,20,22,0.20
2018,02,25,20,23,0.20
2018,02,25,20,24,0.20
2018,02,25,20,25,0.20
2018,02,25,20,26,0.20
2018,02,25,20,27,0.20
2018,02,25,20,28,0.20
2018,02,25,20,29,0.20
2018,02,25,20,30,0.20
2018,02,25,20,31,0.20
2018,02,25,20,32,0.20
2018,02,25,20,33,0.10
2018,02,25,20,34,0.10
2018,02,25,20,35,0.10
2018,02,25,20,36,0.00
2018,02,25,20,37,0.00
2018,02,25,20,38,0.00
2018,02,25,20,39,-0.10
2018,02,25,20,40,-0.10
2018,02,25,20,41,-0.10
2018,02,25,20,42,-0.20
2018,02,25,20,43,-0.20
2018,02,25,20,44,-0.20
2018,02,25,20,45,-0.20
2018,02,25,20,46,-0.20
2018,02,25,20,47,-0.30
2018,02,25,20,48,-0.30
2018,02,25,20,49,-0.30
2018,02,25,20,50,-0.30
2018,02,25,20,51,-0.30
2018,02,25,20,52,-0.30
2018,02,25,20,53,-0.30
2018,02,25,20,54,-0.30
2018,02,25,20,55,-0.30
2018,02,25,20,56,-0.30
2018,02,25,20,57,-0.30
2018,02,25,20,58,-0.30
2018,02,25,20,59,-0.30
2018,02,25,21,00,-0.30
2018,02,25,21,01,-0.30
2018,02,25,21,02,-0.30
2018,02,25,21,03,-0.30
2018,02,25,21,04,-0.30
2018,02,25,21,05,-0.30
2018,02,25,21,06,-0.30
2018,02,25,21,07,-0.30
2018,02,25,21,08,-0.30
2018,02,25,21,09,-0.30
2018,02,25,21,10,-0.30
2018,02,25,21,11,-0.30
2018,02,25,21,12,-0.30
2018,02,25,21,13,-0.30
2018,02,25,21,14,-0.30
2018,02,25,21,15,-0.20
2018,02,25,21,16,-0.20
2018,02,25,21,17,-0.10
2018,02,25,21,18,-0.10
2018,02,25,21,19,-0.10
2018,02,25,21,20,-0.10
2018,02,25,21,21,-0.20
2018,02,25,21,22,-0.10
2018,02,25,21,23,-0.10
2018,02,25,21,24,-0.10
2018,02,25,21,25,-0.10
2018,02,25,21,26,-0.10
2018,02,25,21,27,-0.10
2018,02,25,21,28,-0.10
2018,02,25,21,29,-0.20
2018,02,25,21,30,-0.20
2018,02,25,21,31,-0.20
2018,02,25,21,32,-0.20
2018,02,25,21,33,-0.20
2018,02,25,21,34,-0.20
2018,02,25,21,35,-0.20
2018,02,25,21,36,-0.30
2018,02,25,21,37,-0.30
2018,02,25,21,38,-0.30
2018,02,25,21,39,-0.40
2018,02,25,21,40,-0.40
2018,02,25,21,41,-0.40
2018,02,25,21,42,-0.40
2018,02,25,21,43,-0.40
2018,02,25,21,44,-0.40
2018,02,25,21,45,-0.40
2018,02,25,21,46,-0.40
2018,02,25,21,47,-0.40
2018,02,25,21,48,-0.40
2018,02,25,21,49,-0.40
2018,02,25,21,50,-0.40
2018,02,25,21,51,-0.40
2018,02,25,21,52,-0.40
2018,02,25,21,53,-0.50
2018,02,25,21,54,-0.50
2018,02,25,21,55,-0.50
2018,02,25,21,56,-0.50
2018,02,25,21,57,-0.50
2018,02,25,21,58,-0.60
2018,02,25,21,59,-0.60
2018,02,25,22,00,-0.60
2018,02,25,22,01,-0.60
2018,02,25,22,02,-0.60
2018,02,25,22,03,-0.70
2018,02,25,22,04,-0.70
2018,02,25,22,05,-0.70
2018,02,25,22,06,-0.70
2018,02,25,22,07,-0.80
2018,02,25,22,08,-0.80
2018,02,25,22,09,-0.80
2018,02,25,22,10,-0.80
2018,02,25,22,11,-0.80
2018,02,25,22,12,-0.70
2018,02,25,22,13,-0.70
2018,02,25,22,14,-0.70
2018,02,25,22,15,-0.70
2018,02,25,22,16,-0.70
2018,02,25,22,17,-0.70
2018,02,25,22,18,-0.70
2018,02,25,22,19,-0.70
2018,02,25,22,20,-0.60
2018,02,25,22,21,-0.60
2018,02,25,22,22,-0.60
2018,02,25,22,23,-0.60
2018,02,25,22,24,-0.70
2018,02,25,22,25,-0.70
2018,02,25,22,26,-0.70
2018,02,25,22,27,-0.70
2018,02,25,22,28,-0.70
2018,02,25,22,29,-0.70
2018,02,25,22,30,-0.70
2018,02,25,22,31,-0.70
2018,02,25,22,32,-0.70
2018,02,25,22,33,-0.60
2018,02,25,22,34,-0.60
2018,02,25,22,35,-0.60
2018,02,25,22,36,-0.60
2018,02,25,22,37,-0.60
2018,02,25,22,38,-0.60
2018,02,25,22,39,-0.60
2018,02,25,22,40,-0.60
2018,02,25,22,41,-0.60
2018,02,25,22,42,-0.60
2018,02,25,22,43,-0.60
2018,02,25,22,44,-0.60
2018,02,25,22,45,-0.70
2018,02,25,22,46,-0.70
2018,02,25,22,47,-0.60
2018,02,25,22,48,-0.50
2018,02,25,22,49,-0.50
2018,02,25,22,50,-0.40
2018,02,25,22,51,-0.40
2018,02,25,22,52,-0.40
2018,02,25,22,53,-0.40
2018,02,25,22,54,-0.40
2018,02,25,22,55,-0.40
2018,02,25,22,56,-0.40
2018,02,25,22,57,-0.40
2018,02,25,22,58,-0.40
2018,02,25,22,59,-0.40
2018,02,25,23,00,-0.40
2018,02,25,23,01,-0.40
2018,02,25,23,02,-0.40
2018,02,25,23,03,-0.50
2018,02,25,23,04,-0.60
2018,02,25,23,05,-0.60
2018,02,25,23,06,-0.70
2018,02,25,23,07,-0.70
2018,02,25,23,08,-0.80
2018,02,25,23,09,-0.80
2018,02,25,23,10,-0.80
2018,02,25,23,11,-0.80
2018,02,25,23,12,-0.90
2018,02,25,23,13,-0.90
2018,02,25,23,14,-0.90
2018,02,25,23,15,-0.80
2018,02,25,23,16,-0.80
2018,02,25,23,17,-0.80
2018,02,25,23,18,-0.80
2018,02,25,23,19,-0.80
2018,02,25,23,20,-0.80
2018,02,25,23,21,-0.90
2018,02,25,23,22,-0.90
2018,02,25,23,23,-0.90
2018,02,25,23,24,-1.00
2018,02,25,23,25,-1.00
2018,02,25,23,26,-1.10
2018,02,25,23,27,-1.10
2018,02,25,23,28,-1.10
2018,02,25,23,29,-1.10
2018,02,25,23,30,-1.10
2018,02,25,23,31,-1.20
2018,02,25,23,32,-1.20
2018,02,25,23,33,-1.20
2018,02,25,23,34,-1.10
2018,02,25,23,35,-1.10
2018,02,25,23,36,-1.10
2018,02,25,23,37,-1.00
2018,02,25,23,38,-1.00
2018,02,25,23,39,-1.00
2018,02,25,23,40,-0.90
2018,02,25,23,41,-0.90
2018,02,25,23,42,-0.70
2018,02,25,23,43,-0.50
2018,02,25,23,44,-0.30
2018,02,25,23,45,-0.20
2018,02,25,23,46,-0.10
2018,02,25,23,47,0.00
2018,02,25,23,48,0.10
2018,02,25,23,49,0.10
2018,02,25,23,50,0.10
2018,02,25,23,51,0.10
2018,02,25,23,52,0.10
2018,02,25,23,53,0.00